Weather History for Port Angeles, WA

Change the Weather History Date:

Tuesday, January 14, 2014

  Actual Average Record
Temperature  
Mean Temperature 46 °F -  
Max Temperature 51 °F 45 °F 58 °F (1961)
Min Temperature 42 °F 35 °F 10 °F (1950)
Degree Days  
Heating Degree Days 18    
Moisture  
Dew Point 41 °F    
Average Humidity 83    
Maximum Humidity 92    
Minimum Humidity 68    
Precipitation  
Precipitation 0.00 in - - ()
Sea Level Pressure  
Sea Level Pressure 30.63 in    
Wind  
Wind Speed 5 mph (WSW)    
Max Wind Speed 8 mph    
Max Gust Speed -    
Visibility 10 miles    
Events      
Averages and records for this station are not official NWS values.
T = Trace of Precipitation, MM = Missing Value Source: NWS Daily Summary

Daily Weather History Graph

Daily Weather History Graph

Search for Another Location

Airport:

Trip Planner

Search our weather history database for the weather conditions in past years. The results will help you decide how hot, cold, wet, or windy it might be!

Date:

Astronomy

Jan. 14, 2014 Rise Set
Actual Time 7:59 AM PST 4:46 PM PST
Civil Twilight 7:24 AM PST 5:22 PM PST
Nautical Twilight 6:45 AM PST 6:00 PM PST
Astronomical Twilight 6:08 AM PST 6:38 PM PST
Moon 3:59 PM PST (1/14) 6:36 AM PST (1/14)
Length of Visible Light 9h 57m
Length of Day
8h 46m
Waxing Gibbous, 98% of the Moon is Illuminated
Jan 14
Waxing Gibbous
Jan 15
Full
Jan 23
Last Quarter
Jan 30
New
Feb 6
First Quarter

Hourly Weather History & Observations

Time (PST) Temp. Windchill Dew Point Humidity Pressure Visibility Wind Dir Wind Speed Gust Speed Precip Events Conditions
12:53 AM 45.0 °F 42.6 °F 42.1 °F 90% 30.63 in 10.0 mi South 4.6 mph - N/A   Mostly Cloudy
1:53 AM 45.0 °F 43.5 °F 42.1 °F 90% 30.62 in 10.0 mi SE 3.5 mph - N/A   Overcast
2:53 AM 42.1 °F 39.2 °F 39.9 °F 92% 30.64 in 10.0 mi South 4.6 mph - N/A   Clear
3:17 AM 44.1 °F 40.8 °F 41.0 °F 89% 30.64 in 10.0 mi WSW 5.8 mph - N/A   Mostly Cloudy
3:53 AM 45.0 °F 41.2 °F 41.0 °F 86% 30.65 in 10.0 mi SW 6.9 mph - N/A   Overcast
4:53 AM 45.0 °F 41.8 °F 39.9 °F 82% 30.65 in 10.0 mi SW 5.8 mph - N/A   Overcast
5:39 AM 46.0 °F 42.5 °F 41.0 °F 83% 30.65 in 10.0 mi SW 6.9 mph - N/A   Overcast
5:53 AM 46.0 °F 42.5 °F 41.0 °F 83% 30.66 in 10.0 mi SW 6.9 mph - N/A   Overcast
6:53 AM 45.0 °F 43.5 °F 39.9 °F 82% 30.66 in 10.0 mi West 3.5 mph - N/A   Overcast
7:53 AM 44.1 °F 41.5 °F 39.9 °F 85% 30.66 in 10.0 mi WSW 4.6 mph - N/A   Overcast
8:53 AM 45.0 °F 41.8 °F 41.0 °F 86% 30.65 in 10.0 mi WSW 5.8 mph - N/A   Overcast
9:53 AM 48.0 °F - 42.1 °F 80% 30.66 in 10.0 mi Calm Calm - N/A   Overcast
10:53 AM 48.0 °F - 39.9 °F 74% 30.66 in 10.0 mi WSW 6.9 mph - N/A   Overcast
11:53 AM 51.1 °F - 41.0 °F 68% 30.65 in 10.0 mi West 5.8 mph - N/A   Overcast
12:53 PM 50.0 °F - 45.0 °F 83% 30.65 in 10.0 mi NW 6.9 mph - N/A   Overcast
1:53 PM 51.1 °F - 44.1 °F 77% 30.63 in 10.0 mi Variable 3.5 mph - N/A   Overcast
2:53 PM 51.1 °F - 44.1 °F 77% 30.62 in 10.0 mi North 3.5 mph - N/A   Overcast
3:53 PM 50.0 °F - 43.0 °F 77% 30.63 in 10.0 mi Calm Calm - N/A   Overcast
4:53 PM 50.0 °F - 42.1 °F 74% 30.63 in 10.0 mi West 5.8 mph - N/A   Overcast
5:53 PM 48.9 °F - 42.1 °F 77% 30.63 in 10.0 mi Calm Calm - N/A   Overcast
6:53 PM 48.0 °F - 43.0 °F 83% 30.61 in 10.0 mi Calm Calm - N/A   Overcast
7:53 PM 45.0 °F 43.5 °F 42.1 °F 90% 30.61 in 10.0 mi WNW 3.5 mph - N/A   Clear
8:53 PM 42.1 °F - 39.9 °F 92% 30.59 in 10.0 mi Calm Calm - N/A   Clear
9:53 PM 44.1 °F 40.1 °F 39.9 °F 85% 30.59 in 10.0 mi WNW 6.9 mph - N/A   Clear
10:53 PM 44.1 °F 40.8 °F 39.0 °F 82% 30.59 in 10.0 mi WSW 5.8 mph - N/A   Clear
11:53 PM 44.1 °F 39.5 °F 39.0 °F 82% 30.59 in 10.0 mi West 8.1 mph - N/A   Clear